Location: Poughquag
(41.6090°N, 73.6820°W)
Time: 16:34:03
(UTC-05:00)

N. Korean satellite - Pass Details

Date: 25 January 2020
Orbit: 456 x 505 km, 97.2° (Epoch: 24 February)

Event Time Altitude Azimuth Distance (km) Brightness Sun altitude
Rises 17:35:49 0° 195° (SSW) 2,461 10.7 -6.8°
Reaches altitude 10° 17:38:08 10° 210° (SSW) 1,591 10.0 -7.3°
Maximum altitude 17:40:54 23° 265° (W) 1,021 9.3 -7.7°
Drops below altitude 10° 17:43:41 10° 319° (NW) 1,605 9.5 -8.2°
Sets 17:46:02 0° 335° (NNW) 2,489 10.3 -8.7°
